Year,Month,Day,Hour,Minute,Value (Times are PST for temperature in C)
2009,09,22,00,00,14.50
2009,09,22,00,01,14.50
2009,09,22,00,02,14.50
2009,09,22,00,03,14.50
2009,09,22,00,04,14.50
2009,09,22,00,05,14.50
2009,09,22,00,06,14.50
2009,09,22,00,07,14.50
2009,09,22,00,08,14.50
2009,09,22,00,09,14.50
2009,09,22,00,10,14.50
2009,09,22,00,11,14.60
2009,09,22,00,12,14.60
2009,09,22,00,13,14.60
2009,09,22,00,14,14.60
2009,09,22,00,15,14.60
2009,09,22,00,16,14.60
2009,09,22,00,17,14.60
2009,09,22,00,18,14.70
2009,09,22,00,19,14.70
2009,09,22,00,20,14.70
2009,09,22,00,21,14.70
2009,09,22,00,22,14.70
2009,09,22,00,23,14.70
2009,09,22,00,24,14.70
2009,09,22,00,25,14.70
2009,09,22,00,26,14.70
2009,09,22,00,27,14.70
2009,09,22,00,28,14.70
2009,09,22,00,29,14.70
2009,09,22,00,30,14.70
2009,09,22,00,31,14.70
2009,09,22,00,32,14.70
2009,09,22,00,33,14.70
2009,09,22,00,34,14.70
2009,09,22,00,35,14.70
2009,09,22,00,36,14.70
2009,09,22,00,37,14.60
2009,09,22,00,38,14.60
2009,09,22,00,39,14.60
2009,09,22,00,40,14.60
2009,09,22,00,41,14.50
2009,09,22,00,42,14.50
2009,09,22,00,43,14.50
2009,09,22,00,44,14.40
2009,09,22,00,45,14.40
2009,09,22,00,46,14.40
2009,09,22,00,47,14.40
2009,09,22,00,48,14.50
2009,09,22,00,49,14.50
2009,09,22,00,50,14.60
2009,09,22,00,51,14.60
2009,09,22,00,52,14.60
2009,09,22,00,53,14.60
2009,09,22,00,54,14.60
2009,09,22,00,55,14.70
2009,09,22,00,56,14.70
2009,09,22,00,57,14.70
2009,09,22,00,58,14.70
2009,09,22,00,59,14.70
2009,09,22,01,00,14.70
2009,09,22,01,01,14.70
2009,09,22,01,02,14.70
2009,09,22,01,03,14.70
2009,09,22,01,04,14.70
2009,09,22,01,05,14.70
2009,09,22,01,06,14.70
2009,09,22,01,07,14.70
2009,09,22,01,08,14.70
2009,09,22,01,09,14.70
2009,09,22,01,10,14.70
2009,09,22,01,11,14.70
2009,09,22,01,12,14.70
2009,09,22,01,13,14.70
2009,09,22,01,14,14.70
2009,09,22,01,15,14.70
2009,09,22,01,16,14.70
2009,09,22,01,17,14.70
2009,09,22,01,18,14.70
2009,09,22,01,19,14.70
2009,09,22,01,20,14.70
2009,09,22,01,21,14.60
2009,09,22,01,22,14.60
2009,09,22,01,23,14.60
2009,09,22,01,24,14.60
2009,09,22,01,25,14.60
2009,09,22,01,26,14.50
2009,09,22,01,27,14.50
2009,09,22,01,28,14.40
2009,09,22,01,29,14.40
2009,09,22,01,30,14.40
2009,09,22,01,31,14.30
2009,09,22,01,32,14.30
2009,09,22,01,33,14.30
2009,09,22,01,34,14.30
2009,09,22,01,35,14.30
2009,09,22,01,36,14.30
2009,09,22,01,37,14.30
2009,09,22,01,38,14.30
2009,09,22,01,39,14.30
2009,09,22,01,40,14.30
2009,09,22,01,41,14.30
2009,09,22,01,42,14.30
2009,09,22,01,43,14.30
2009,09,22,01,44,14.30
2009,09,22,01,45,14.30
2009,09,22,01,46,14.30
2009,09,22,01,47,14.30
2009,09,22,01,48,14.30
2009,09,22,01,49,14.30
2009,09,22,01,50,14.30
2009,09,22,01,51,14.30
2009,09,22,01,52,14.30
2009,09,22,01,53,14.20
2009,09,22,01,54,14.20
2009,09,22,01,55,14.20
2009,09,22,01,56,14.20
2009,09,22,01,57,14.20
2009,09,22,01,58,14.20
2009,09,22,01,59,14.10
2009,09,22,02,00,14.10
2009,09,22,02,01,14.10
2009,09,22,02,02,14.10
2009,09,22,02,03,14.10
2009,09,22,02,04,14.10
2009,09,22,02,05,14.00
2009,09,22,02,06,14.00
2009,09,22,02,07,14.10
2009,09,22,02,08,14.10
2009,09,22,02,09,14.10
2009,09,22,02,10,14.00
2009,09,22,02,11,14.00
2009,09,22,02,12,14.00
2009,09,22,02,13,14.00
2009,09,22,02,14,14.00
2009,09,22,02,15,14.00
2009,09,22,02,16,13.90
2009,09,22,02,17,13.90
2009,09,22,02,18,13.90
2009,09,22,02,19,13.90
2009,09,22,02,20,13.90
2009,09,22,02,21,13.90
2009,09,22,02,22,13.90
2009,09,22,02,23,13.90
2009,09,22,02,24,13.90
2009,09,22,02,25,13.80
2009,09,22,02,26,13.80
2009,09,22,02,27,13.80
2009,09,22,02,28,13.80
2009,09,22,02,29,13.80
2009,09,22,02,30,13.80
2009,09,22,02,31,13.80
2009,09,22,02,32,13.90
2009,09,22,02,33,13.90
2009,09,22,02,34,13.80
2009,09,22,02,35,13.80
2009,09,22,02,36,13.80
2009,09,22,02,37,13.80
2009,09,22,02,38,13.80
2009,09,22,02,39,13.80
2009,09,22,02,40,13.90
2009,09,22,02,41,13.90
2009,09,22,02,42,13.90
2009,09,22,02,43,13.90
2009,09,22,02,44,13.80
2009,09,22,02,45,13.80
2009,09,22,02,46,13.80
2009,09,22,02,47,13.80
2009,09,22,02,48,13.80
2009,09,22,02,49,13.80
2009,09,22,02,50,13.80
2009,09,22,02,51,13.70
2009,09,22,02,52,13.70
2009,09,22,02,53,13.70
2009,09,22,02,54,13.70
2009,09,22,02,55,13.70
2009,09,22,02,56,13.70
2009,09,22,02,57,13.70
2009,09,22,02,58,13.70
2009,09,22,02,59,13.70
2009,09,22,03,00,13.70
2009,09,22,03,01,13.80
2009,09,22,03,02,13.80
2009,09,22,03,03,13.80
2009,09,22,03,04,13.80
2009,09,22,03,05,13.80
2009,09,22,03,06,13.90
2009,09,22,03,07,13.90
2009,09,22,03,08,13.90
2009,09,22,03,09,13.90
2009,09,22,03,10,13.90
2009,09,22,03,11,13.90
2009,09,22,03,12,13.90
2009,09,22,03,13,13.90
2009,09,22,03,14,13.90
2009,09,22,03,15,13.90
2009,09,22,03,16,14.00
2009,09,22,03,17,14.00
2009,09,22,03,18,14.00
2009,09,22,03,19,14.00
2009,09,22,03,20,14.00
2009,09,22,03,21,14.00
2009,09,22,03,22,14.00
2009,09,22,03,23,14.00
2009,09,22,03,24,14.10
2009,09,22,03,25,14.10
2009,09,22,03,26,14.10
2009,09,22,03,27,14.10
2009,09,22,03,28,14.10
2009,09,22,03,29,14.10
2009,09,22,03,30,14.10
2009,09,22,03,31,14.10
2009,09,22,03,32,14.10
2009,09,22,03,33,14.10
2009,09,22,03,34,14.10
2009,09,22,03,35,14.10
2009,09,22,03,36,14.10
2009,09,22,03,37,14.10
2009,09,22,03,38,14.10
2009,09,22,03,39,14.00
2009,09,22,03,40,14.00
2009,09,22,03,41,14.00
2009,09,22,03,42,14.00
2009,09,22,03,43,14.00
2009,09,22,03,44,13.90
2009,09,22,03,45,13.90
2009,09,22,03,46,13.90
2009,09,22,03,47,13.90
2009,09,22,03,48,13.90
2009,09,22,03,49,13.90
2009,09,22,03,50,13.80
2009,09,22,03,51,13.80
2009,09,22,03,52,13.80
2009,09,22,03,53,13.80
2009,09,22,03,54,13.80
2009,09,22,03,55,13.70
2009,09,22,03,56,13.70
2009,09,22,03,57,13.70
2009,09,22,03,58,13.60
2009,09,22,03,59,13.60
2009,09,22,04,00,13.60
2009,09,22,04,01,13.50
2009,09,22,04,02,13.40
2009,09,22,04,03,13.40
2009,09,22,04,04,13.30
2009,09,22,04,05,13.30
2009,09,22,04,06,13.30
2009,09,22,04,07,13.30
2009,09,22,04,08,13.20
2009,09,22,04,09,13.20
2009,09,22,04,10,13.20
2009,09,22,04,11,13.20
2009,09,22,04,12,13.20
2009,09,22,04,13,13.20
2009,09,22,04,14,13.20
2009,09,22,04,15,13.10
2009,09,22,04,16,13.10
2009,09,22,04,17,13.10
2009,09,22,04,18,13.10
2009,09,22,04,19,13.10
2009,09,22,04,20,13.10
2009,09,22,04,21,13.10
2009,09,22,04,22,13.10
2009,09,22,04,23,13.00
2009,09,22,04,24,13.00
2009,09,22,04,25,13.00
2009,09,22,04,26,12.90
2009,09,22,04,27,12.90
2009,09,22,04,28,12.90
2009,09,22,04,29,12.90
2009,09,22,04,30,12.90
2009,09,22,04,31,12.90
2009,09,22,04,32,12.90
2009,09,22,04,33,12.90
2009,09,22,04,34,12.90
2009,09,22,04,35,12.90
2009,09,22,04,36,12.90
2009,09,22,04,37,12.90
2009,09,22,04,38,12.90
2009,09,22,04,39,13.00
2009,09,22,04,40,13.00
2009,09,22,04,41,13.10
2009,09,22,04,42,13.10
2009,09,22,04,43,13.20
2009,09,22,04,44,13.20
2009,09,22,04,45,13.30
2009,09,22,04,46,13.30
2009,09,22,04,47,13.30
2009,09,22,04,48,13.40
2009,09,22,04,49,13.40
2009,09,22,04,50,13.40
2009,09,22,04,51,13.40
2009,09,22,04,52,13.40
2009,09,22,04,53,13.40
2009,09,22,04,54,13.40
2009,09,22,04,55,13.40
2009,09,22,04,56,13.40
2009,09,22,04,57,13.40
2009,09,22,04,58,13.40
2009,09,22,04,59,13.40
2009,09,22,05,00,13.40
2009,09,22,05,01,13.40
2009,09,22,05,02,13.40
2009,09,22,05,03,13.40
2009,09,22,05,04,13.30
2009,09,22,05,05,13.30
2009,09,22,05,06,13.30
2009,09,22,05,07,13.30
2009,09,22,05,08,13.30
2009,09,22,05,09,13.30
2009,09,22,05,10,13.30
2009,09,22,05,11,13.30
2009,09,22,05,12,13.30
2009,09,22,05,13,13.30
2009,09,22,05,14,13.20
2009,09,22,05,15,13.20
2009,09,22,05,16,13.20
2009,09,22,05,17,13.20
2009,09,22,05,18,13.20
2009,09,22,05,19,13.20
2009,09,22,05,20,13.20
2009,09,22,05,21,13.20
2009,09,22,05,22,13.20
2009,09,22,05,23,13.20
2009,09,22,05,24,13.20
2009,09,22,05,25,13.20
2009,09,22,05,26,13.20
2009,09,22,05,27,13.20
2009,09,22,05,28,13.20
2009,09,22,05,29,13.20
2009,09,22,05,30,13.10
2009,09,22,05,31,13.10
2009,09,22,05,32,13.10
2009,09,22,05,33,13.20
2009,09,22,05,34,13.10
2009,09,22,05,35,13.10
2009,09,22,05,36,13.20
2009,09,22,05,37,13.20
2009,09,22,05,38,13.20
2009,09,22,05,39,13.20
2009,09,22,05,40,13.30
2009,09,22,05,41,13.30
2009,09,22,05,42,13.30
2009,09,22,05,43,13.30
2009,09,22,05,44,13.30
2009,09,22,05,45,13.20
2009,09,22,05,46,13.20
2009,09,22,05,47,13.20
2009,09,22,05,48,13.20
2009,09,22,05,49,13.20
2009,09,22,05,50,13.10
2009,09,22,05,51,13.10
2009,09,22,05,52,13.10
2009,09,22,05,53,13.10
2009,09,22,05,54,13.10
2009,09,22,05,55,13.10
2009,09,22,05,56,13.10
2009,09,22,05,57,13.10
2009,09,22,05,58,13.10
2009,09,22,05,59,13.10
2009,09,22,06,00,13.10
2009,09,22,06,01,13.10
2009,09,22,06,02,13.10
2009,09,22,06,03,13.10
2009,09,22,06,04,13.10
2009,09,22,06,05,13.10
2009,09,22,06,06,13.10
2009,09,22,06,07,13.20
2009,09,22,06,08,13.20
2009,09,22,06,09,13.20
2009,09,22,06,10,13.20
2009,09,22,06,11,13.20
2009,09,22,06,12,13.20
2009,09,22,06,13,13.20
2009,09,22,06,14,13.20
2009,09,22,06,15,13.20
2009,09,22,06,16,13.20
2009,09,22,06,17,13.20
2009,09,22,06,18,13.20
2009,09,22,06,19,13.20
2009,09,22,06,20,13.30
2009,09,22,06,21,13.30
2009,09,22,06,22,13.30
2009,09,22,06,23,13.30
2009,09,22,06,24,13.30
2009,09,22,06,25,13.30
2009,09,22,06,26,13.30
2009,09,22,06,27,13.30
2009,09,22,06,28,13.20
2009,09,22,06,29,13.20
2009,09,22,06,30,13.30
2009,09,22,06,31,13.30
2009,09,22,06,32,13.30
2009,09,22,06,33,13.30
2009,09,22,06,34,13.30
2009,09,22,06,35,13.20
2009,09,22,06,36,13.20
2009,09,22,06,37,13.20
2009,09,22,06,38,13.20
2009,09,22,06,39,13.20
2009,09,22,06,40,13.20
2009,09,22,06,41,13.20
2009,09,22,06,42,13.20
2009,09,22,06,43,13.20
2009,09,22,06,44,13.20
2009,09,22,06,45,13.20
2009,09,22,06,46,13.10
2009,09,22,06,47,13.20
2009,09,22,06,48,13.20
2009,09,22,06,49,13.10
2009,09,22,06,50,13.10
2009,09,22,06,51,13.10
2009,09,22,06,52,13.10
2009,09,22,06,53,13.10
2009,09,22,06,54,13.10
2009,09,22,06,55,13.10
2009,09,22,06,56,13.10
2009,09,22,06,57,13.10
2009,09,22,06,58,13.10
2009,09,22,06,59,13.10
2009,09,22,07,00,13.10
2009,09,22,07,01,13.10
2009,09,22,07,02,13.10
2009,09,22,07,03,13.10
2009,09,22,07,04,13.10
2009,09,22,07,05,13.10
2009,09,22,07,06,13.10
2009,09,22,07,07,13.10
2009,09,22,07,08,13.10
2009,09,22,07,09,13.20
2009,09,22,07,10,13.20
2009,09,22,07,11,13.20
2009,09,22,07,12,13.30
2009,09,22,07,13,13.30
2009,09,22,07,14,13.30
2009,09,22,07,15,13.30
2009,09,22,07,16,13.30
2009,09,22,07,17,13.30
2009,09,22,07,18,13.30
2009,09,22,07,19,13.40
2009,09,22,07,20,13.40
2009,09,22,07,21,13.40
2009,09,22,07,22,13.40
2009,09,22,07,23,13.40
2009,09,22,07,24,13.50
2009,09,22,07,25,13.50
2009,09,22,07,26,13.50
2009,09,22,07,27,13.50
2009,09,22,07,28,13.50
2009,09,22,07,29,13.60
2009,09,22,07,30,13.60
2009,09,22,07,31,13.60
2009,09,22,07,32,13.60
2009,09,22,07,33,13.60
2009,09,22,07,34,13.60
2009,09,22,07,35,13.60
2009,09,22,07,36,13.60
2009,09,22,07,37,13.70
2009,09,22,07,38,13.70
2009,09,22,07,39,13.70
2009,09,22,07,40,13.70
2009,09,22,07,41,13.70
2009,09,22,07,42,13.80
2009,09,22,07,43,13.80
2009,09,22,07,44,13.80
2009,09,22,07,45,13.80
2009,09,22,07,46,13.80
2009,09,22,07,47,13.90
2009,09,22,07,48,13.90
2009,09,22,07,49,13.90
2009,09,22,07,50,14.00
2009,09,22,07,51,14.00
2009,09,22,07,52,14.10
2009,09,22,07,53,14.10
2009,09,22,07,54,14.10
2009,09,22,07,55,14.20
2009,09,22,07,56,14.20
2009,09,22,07,57,14.30
2009,09,22,07,58,14.30
2009,09,22,07,59,14.30
2009,09,22,08,00,14.40
2009,09,22,08,01,14.40
2009,09,22,08,02,14.50
2009,09,22,08,03,14.50
2009,09,22,08,04,14.60
2009,09,22,08,05,14.60
2009,09,22,08,06,14.60
2009,09,22,08,07,14.60
2009,09,22,08,08,14.60
2009,09,22,08,09,14.60
2009,09,22,08,10,14.60
2009,09,22,08,11,14.60
2009,09,22,08,12,14.60
2009,09,22,08,13,14.60
2009,09,22,08,14,14.60
2009,09,22,08,15,14.60
2009,09,22,08,16,14.70
2009,09,22,08,17,14.70
2009,09,22,08,18,14.70
2009,09,22,08,19,14.70
2009,09,22,08,20,14.70
2009,09,22,08,21,14.70
2009,09,22,08,22,14.80
2009,09,22,08,23,14.80
2009,09,22,08,24,14.90
2009,09,22,08,25,15.00
2009,09,22,08,26,15.00
2009,09,22,08,27,15.00
2009,09,22,08,28,15.00
2009,09,22,08,29,15.00
2009,09,22,08,30,15.10
2009,09,22,08,31,15.20
2009,09,22,08,32,15.30
2009,09,22,08,33,15.30
2009,09,22,08,34,15.40
2009,09,22,08,35,15.50
2009,09,22,08,36,15.60
2009,09,22,08,37,15.60
2009,09,22,08,38,15.70
2009,09,22,08,39,15.80
2009,09,22,08,40,15.90
2009,09,22,08,41,15.90
2009,09,22,08,42,16.00
2009,09,22,08,43,16.10
2009,09,22,08,44,16.10
2009,09,22,08,45,16.10
2009,09,22,08,46,16.20
2009,09,22,08,47,16.20
2009,09,22,08,48,16.30
2009,09,22,08,49,16.40
2009,09,22,08,50,16.40
2009,09,22,08,51,16.50
2009,09,22,08,52,16.60
2009,09,22,08,53,16.70
2009,09,22,08,54,16.80
2009,09,22,08,55,16.80
2009,09,22,08,56,16.90
2009,09,22,08,57,17.00
2009,09,22,08,58,17.10
2009,09,22,08,59,17.20
2009,09,22,09,00,17.30
2009,09,22,09,01,17.40
2009,09,22,09,02,17.50
2009,09,22,09,03,17.60
2009,09,22,09,04,17.70
2009,09,22,09,05,17.70
2009,09,22,09,06,17.80
2009,09,22,09,07,17.90
2009,09,22,09,08,18.00
2009,09,22,09,09,18.00
2009,09,22,09,10,18.10
2009,09,22,09,11,18.20
2009,09,22,09,12,18.30
2009,09,22,09,13,18.40
2009,09,22,09,14,18.50
2009,09,22,09,15,18.50
2009,09,22,09,16,18.60
2009,09,22,09,17,18.70
2009,09,22,09,18,18.70
2009,09,22,09,19,18.80
2009,09,22,09,20,18.90
2009,09,22,09,21,19.00
2009,09,22,09,22,19.00
2009,09,22,09,23,19.10
2009,09,22,09,24,19.10
2009,09,22,09,25,19.20
2009,09,22,09,26,19.20
2009,09,22,09,27,19.30
2009,09,22,09,28,19.30
2009,09,22,09,29,19.40
2009,09,22,09,30,19.40
2009,09,22,09,31,19.40
2009,09,22,09,32,19.40
2009,09,22,09,33,19.40
2009,09,22,09,34,19.50
2009,09,22,09,35,19.50
2009,09,22,09,36,19.50
2009,09,22,09,37,19.60
2009,09,22,09,38,19.60
2009,09,22,09,39,19.60
2009,09,22,09,40,19.60
2009,09,22,09,41,19.70
2009,09,22,09,42,19.70
2009,09,22,09,43,19.70
2009,09,22,09,44,19.70
2009,09,22,09,45,19.80
2009,09,22,09,46,19.80
2009,09,22,09,47,19.80
2009,09,22,09,48,19.90
2009,09,22,09,49,19.90
2009,09,22,09,50,19.90
2009,09,22,09,51,19.90
2009,09,22,09,52,19.90
2009,09,22,09,53,19.90
2009,09,22,09,54,19.90
2009,09,22,09,55,19.90
2009,09,22,09,56,19.90
2009,09,22,09,57,19.90
2009,09,22,09,58,20.00
2009,09,22,09,59,20.00
2009,09,22,10,00,20.10
2009,09,22,10,01,20.10
2009,09,22,10,02,20.20
2009,09,22,10,03,20.20
2009,09,22,10,04,20.20
2009,09,22,10,05,20.20
2009,09,22,10,06,20.20
2009,09,22,10,07,20.20
2009,09,22,10,08,20.20
2009,09,22,10,09,20.10
2009,09,22,10,10,20.10
2009,09,22,10,11,20.10
2009,09,22,10,12,20.10
2009,09,22,10,13,20.10
2009,09,22,10,14,20.10
2009,09,22,10,15,20.00
2009,09,22,10,16,20.00
2009,09,22,10,17,19.90
2009,09,22,10,18,19.90
2009,09,22,10,19,19.90
2009,09,22,10,20,19.90
2009,09,22,10,21,19.90
2009,09,22,10,22,19.80
2009,09,22,10,23,19.80
2009,09,22,10,24,19.80
2009,09,22,10,25,19.80
2009,09,22,10,26,19.80
2009,09,22,10,27,19.80
2009,09,22,10,28,19.80
2009,09,22,10,29,19.80
2009,09,22,10,30,19.90
2009,09,22,10,31,19.90
2009,09,22,10,32,20.00
2009,09,22,10,33,20.10
2009,09,22,10,34,20.10
2009,09,22,10,35,20.20
2009,09,22,10,36,20.20
2009,09,22,10,37,20.30
2009,09,22,10,38,20.30
2009,09,22,10,39,20.30
2009,09,22,10,40,20.30
2009,09,22,10,41,20.20
2009,09,22,10,42,20.20
2009,09,22,10,43,20.30
2009,09,22,10,44,20.30
2009,09,22,10,45,20.40
2009,09,22,10,46,20.40
2009,09,22,10,47,20.30
2009,09,22,10,48,20.30
2009,09,22,10,49,20.30
2009,09,22,10,50,20.20
2009,09,22,10,51,20.20
2009,09,22,10,52,20.30
2009,09,22,10,53,20.30
2009,09,22,10,54,20.40
2009,09,22,10,55,20.40
2009,09,22,10,56,20.50
2009,09,22,10,57,20.50
2009,09,22,10,58,20.60
2009,09,22,10,59,20.60
2009,09,22,11,00,20.60
2009,09,22,11,01,20.50
2009,09,22,11,02,20.50
2009,09,22,11,03,20.40
2009,09,22,11,04,20.30
2009,09,22,11,05,20.30
2009,09,22,11,06,20.20
2009,09,22,11,07,20.20
2009,09,22,11,08,20.20
2009,09,22,11,09,20.30
2009,09,22,11,10,20.40
2009,09,22,11,11,20.40
2009,09,22,11,12,20.40
2009,09,22,11,13,20.40
2009,09,22,11,14,20.40
2009,09,22,11,15,20.40
2009,09,22,11,16,20.40
2009,09,22,11,17,20.40
2009,09,22,11,18,20.40
2009,09,22,11,19,20.40
2009,09,22,11,20,20.40
2009,09,22,11,21,20.40
2009,09,22,11,22,20.30
2009,09,22,11,23,20.30
2009,09,22,11,24,20.30
2009,09,22,11,25,20.30
2009,09,22,11,26,20.40
2009,09,22,11,27,20.50
2009,09,22,11,28,20.60
2009,09,22,11,29,20.60
2009,09,22,11,30,20.70
2009,09,22,11,31,20.70
2009,09,22,11,32,20.70
2009,09,22,11,33,20.60
2009,09,22,11,34,20.70
2009,09,22,11,35,20.70
2009,09,22,11,36,20.80
2009,09,22,11,37,21.00
2009,09,22,11,38,21.00
2009,09,22,11,39,21.10
2009,09,22,11,40,21.20
2009,09,22,11,41,21.30
2009,09,22,11,42,21.40
2009,09,22,11,43,21.40
2009,09,22,11,44,21.40
2009,09,22,11,45,21.50
2009,09,22,11,46,21.40
2009,09,22,11,47,21.40
2009,09,22,11,48,21.30
2009,09,22,11,49,21.20
2009,09,22,11,50,21.20
2009,09,22,11,51,21.20
2009,09,22,11,52,21.20
2009,09,22,11,53,21.30
2009,09,22,11,54,21.30
2009,09,22,11,55,21.40
2009,09,22,11,56,21.40
2009,09,22,11,57,21.50
2009,09,22,11,58,21.60
2009,09,22,11,59,21.60
2009,09,22,12,00,21.70
2009,09,22,12,01,21.80
2009,09,22,12,02,21.80
2009,09,22,12,03,21.80
2009,09,22,12,04,21.90
2009,09,22,12,05,21.90
2009,09,22,12,06,21.90
2009,09,22,12,07,21.80
2009,09,22,12,08,21.80
2009,09,22,12,09,21.80
2009,09,22,12,10,21.80
2009,09,22,12,11,21.80
2009,09,22,12,12,21.80
2009,09,22,12,13,21.80
2009,09,22,12,14,21.80
2009,09,22,12,15,21.80
2009,09,22,12,16,21.80
2009,09,22,12,17,21.80
2009,09,22,12,18,21.80
2009,09,22,12,19,21.80
2009,09,22,12,20,21.90
2009,09,22,12,21,22.00
2009,09,22,12,22,22.10
2009,09,22,12,23,22.10
2009,09,22,12,24,22.10
2009,09,22,12,25,22.20
2009,09,22,12,26,22.20
2009,09,22,12,27,22.30
2009,09,22,12,28,22.30
2009,09,22,12,29,22.50
2009,09,22,12,30,22.50
2009,09,22,12,31,22.60
2009,09,22,12,32,22.60
2009,09,22,12,33,22.70
2009,09,22,12,34,22.80
2009,09,22,12,35,22.80
2009,09,22,12,36,22.90
2009,09,22,12,37,22.90
2009,09,22,12,38,22.90
2009,09,22,12,39,22.90
2009,09,22,12,40,22.90
2009,09,22,12,41,22.90
2009,09,22,12,42,22.90
2009,09,22,12,43,22.90
2009,09,22,12,44,22.80
2009,09,22,12,45,22.90
2009,09,22,12,46,23.00
2009,09,22,12,47,23.00
2009,09,22,12,48,22.90
2009,09,22,12,49,22.90
2009,09,22,12,50,23.00
2009,09,22,12,51,23.10
2009,09,22,12,52,23.10
2009,09,22,12,53,23.30
2009,09,22,12,54,23.40
2009,09,22,12,55,23.40
2009,09,22,12,56,23.50
2009,09,22,12,57,23.50
2009,09,22,12,58,23.60
2009,09,22,12,59,23.60
2009,09,22,13,00,23.70
2009,09,22,13,01,23.70
2009,09,22,13,02,23.70
2009,09,22,13,03,23.70
2009,09,22,13,04,23.70
2009,09,22,13,05,23.60
2009,09,22,13,06,23.50
2009,09,22,13,07,23.40
2009,09,22,13,08,23.40
2009,09,22,13,09,23.40
2009,09,22,13,10,23.40
2009,09,22,13,11,23.50
2009,09,22,13,12,23.50
2009,09,22,13,13,23.60
2009,09,22,13,14,23.80
2009,09,22,13,15,23.90
2009,09,22,13,16,24.00
2009,09,22,13,17,24.10
2009,09,22,13,18,24.30
2009,09,22,13,19,24.40
2009,09,22,13,20,24.50
2009,09,22,13,21,24.50
2009,09,22,13,22,24.50
2009,09,22,13,23,24.30
2009,09,22,13,24,24.00
2009,09,22,13,25,23.60
2009,09,22,13,26,23.00
2009,09,22,13,27,22.40
2009,09,22,13,28,21.80
2009,09,22,13,29,21.40
2009,09,22,13,30,21.00
2009,09,22,13,31,20.80
2009,09,22,13,32,20.50
2009,09,22,13,33,20.40
2009,09,22,13,34,20.20
2009,09,22,13,35,20.20
2009,09,22,13,36,20.20
2009,09,22,13,37,20.30
2009,09,22,13,38,20.40
2009,09,22,13,39,20.60
2009,09,22,13,40,20.70
2009,09,22,13,41,20.80
2009,09,22,13,42,21.00
2009,09,22,13,43,21.10
2009,09,22,13,44,21.20
2009,09,22,13,45,21.30
2009,09,22,13,46,21.50
2009,09,22,13,47,21.60
2009,09,22,13,48,21.70
2009,09,22,13,49,21.80
2009,09,22,13,50,21.90
2009,09,22,13,51,22.10
2009,09,22,13,52,22.20
2009,09,22,13,53,22.40
2009,09,22,13,54,22.70
2009,09,22,13,55,22.90
2009,09,22,13,56,23.10
2009,09,22,13,57,23.10
2009,09,22,13,58,23.10
2009,09,22,13,59,22.90
2009,09,22,14,00,22.90
2009,09,22,14,01,22.80
2009,09,22,14,02,22.70
2009,09,22,14,03,22.70
2009,09,22,14,04,22.70
2009,09,22,14,05,22.70
2009,09,22,14,06,22.60
2009,09,22,14,07,22.60
2009,09,22,14,08,22.40
2009,09,22,14,09,22.10
2009,09,22,14,10,21.90
2009,09,22,14,11,21.80
2009,09,22,14,12,21.80
2009,09,22,14,13,21.70
2009,09,22,14,14,21.60
2009,09,22,14,15,21.60
2009,09,22,14,16,21.60
2009,09,22,14,17,21.50
2009,09,22,14,18,21.30
2009,09,22,14,19,21.20
2009,09,22,14,20,21.10
2009,09,22,14,21,21.10
2009,09,22,14,22,21.10
2009,09,22,14,23,21.10
2009,09,22,14,24,21.10
2009,09,22,14,25,21.20
2009,09,22,14,26,21.30
2009,09,22,14,27,21.40
2009,09,22,14,28,21.50
2009,09,22,14,29,21.60
2009,09,22,14,30,21.70
2009,09,22,14,31,21.80
2009,09,22,14,32,21.90
2009,09,22,14,33,22.10
2009,09,22,14,34,22.20
2009,09,22,14,35,22.40
2009,09,22,14,36,22.60
2009,09,22,14,37,22.70
2009,09,22,14,38,22.80
2009,09,22,14,39,22.80
2009,09,22,14,40,22.80
2009,09,22,14,41,23.00
2009,09,22,14,42,22.90
2009,09,22,14,43,23.00
2009,09,22,14,44,23.00
2009,09,22,14,45,23.10
2009,09,22,14,46,23.20
2009,09,22,14,47,23.30
2009,09,22,14,48,23.40
2009,09,22,14,49,23.50
2009,09,22,14,50,23.60
2009,09,22,14,51,23.80
2009,09,22,14,52,23.90
2009,09,22,14,53,24.00
2009,09,22,14,54,24.10
2009,09,22,14,55,24.20
2009,09,22,14,56,24.30
2009,09,22,14,57,24.30
2009,09,22,14,58,24.30
2009,09,22,14,59,24.40
2009,09,22,15,00,24.40
2009,09,22,15,01,24.40
2009,09,22,15,02,24.50
2009,09,22,15,03,24.60
2009,09,22,15,04,24.80
2009,09,22,15,05,24.90
2009,09,22,15,06,25.00
2009,09,22,15,07,25.00
2009,09,22,15,08,25.10
2009,09,22,15,09,25.10
2009,09,22,15,10,25.10
2009,09,22,15,11,25.10
2009,09,22,15,12,25.10
2009,09,22,15,13,25.20
2009,09,22,15,14,25.20
2009,09,22,15,15,25.30
2009,09,22,15,16,25.30
2009,09,22,15,17,25.40
2009,09,22,15,18,25.40
2009,09,22,15,19,25.30
2009,09,22,15,20,25.20
2009,09,22,15,21,25.10
2009,09,22,15,22,25.00
2009,09,22,15,23,24.90
2009,09,22,15,24,24.70
2009,09,22,15,25,24.70
2009,09,22,15,26,24.70
2009,09,22,15,27,24.80
2009,09,22,15,28,24.70
2009,09,22,15,29,24.70
2009,09,22,15,30,24.80
2009,09,22,15,31,24.90
2009,09,22,15,32,24.90
2009,09,22,15,33,24.70
2009,09,22,15,34,24.40
2009,09,22,15,35,24.30
2009,09,22,15,36,24.20
2009,09,22,15,37,24.00
2009,09,22,15,38,24.00
2009,09,22,15,39,24.00
2009,09,22,15,40,24.00
2009,09,22,15,41,24.10
2009,09,22,15,42,24.20
2009,09,22,15,43,24.30
2009,09,22,15,44,24.40
2009,09,22,15,45,24.50
2009,09,22,15,46,24.50
2009,09,22,15,47,24.40
2009,09,22,15,48,24.20
2009,09,22,15,49,24.20
2009,09,22,15,50,24.10
2009,09,22,15,51,24.10
2009,09,22,15,52,24.10
2009,09,22,15,53,24.20
2009,09,22,15,54,24.20
2009,09,22,15,55,24.20
2009,09,22,15,56,24.10
2009,09,22,15,57,23.90
2009,09,22,15,58,23.70
2009,09,22,15,59,23.70
2009,09,22,16,00,23.60
2009,09,22,16,01,23.60
2009,09,22,16,02,23.60
2009,09,22,16,03,23.60
2009,09,22,16,04,23.60
2009,09,22,16,05,23.60
2009,09,22,16,06,23.60
2009,09,22,16,07,23.70
2009,09,22,16,08,23.70
2009,09,22,16,09,23.80
2009,09,22,16,10,23.90
2009,09,22,16,11,23.90
2009,09,22,16,12,24.00
2009,09,22,16,13,24.10
2009,09,22,16,14,24.10
2009,09,22,16,15,24.00
2009,09,22,16,16,23.90
2009,09,22,16,17,23.80
2009,09,22,16,18,23.80
2009,09,22,16,19,23.80
2009,09,22,16,20,23.80
2009,09,22,16,21,23.80
2009,09,22,16,22,23.90
2009,09,22,16,23,23.90
2009,09,22,16,24,23.80
2009,09,22,16,25,23.80
2009,09,22,16,26,23.80
2009,09,22,16,27,23.80
2009,09,22,16,28,23.80
2009,09,22,16,29,23.80
2009,09,22,16,30,23.90
2009,09,22,16,31,23.90
2009,09,22,16,32,24.00
2009,09,22,16,33,24.10
2009,09,22,16,34,24.10
2009,09,22,16,35,24.20
2009,09,22,16,36,24.20
2009,09,22,16,37,24.20
2009,09,22,16,38,24.20
2009,09,22,16,39,24.20
2009,09,22,16,40,24.20
2009,09,22,16,41,24.10
2009,09,22,16,42,23.90
2009,09,22,16,43,23.80
2009,09,22,16,44,23.70
2009,09,22,16,45,23.60
2009,09,22,16,46,23.40
2009,09,22,16,47,23.30
2009,09,22,16,48,23.20
2009,09,22,16,49,23.10
2009,09,22,16,50,23.00
2009,09,22,16,51,22.90
2009,09,22,16,52,22.90
2009,09,22,16,53,22.80
2009,09,22,16,54,22.80
2009,09,22,16,55,22.80
2009,09,22,16,56,22.70
2009,09,22,16,57,22.60
2009,09,22,16,58,22.50
2009,09,22,16,59,22.40
2009,09,22,17,00,22.40
2009,09,22,17,01,22.40
2009,09,22,17,02,22.50
2009,09,22,17,03,22.50
2009,09,22,17,04,22.50
2009,09,22,17,05,22.60
2009,09,22,17,06,22.60
2009,09,22,17,07,22.60
2009,09,22,17,08,22.70
2009,09,22,17,09,22.70
2009,09,22,17,10,22.80
2009,09,22,17,11,22.80
2009,09,22,17,12,22.80
2009,09,22,17,13,22.80
2009,09,22,17,14,22.80
2009,09,22,17,15,22.80
2009,09,22,17,16,22.80
2009,09,22,17,17,22.80
2009,09,22,17,18,22.80
2009,09,22,17,19,22.70